Precipitable_Water
0.74 0.72 0.73 0.72 0.71 0.70 0.72 0.71 0.69 0.66 0.64 0.63 0.61 0.61 0.57 0.57 0.53 0.47 0.41 0.45 0.45 0.55 0.58 0.53 0.52 0.47 0.45 0.40 0.42 0.39 0.26 0.24 0.23 0.22 0.22 0.30 0.30 0.35 0.41 0.39 0.44 0.48 0.44 0.58 0.68
0.66 0.63 0.64 0.65 0.65 0.67 0.69 0.70 0.68 0.67 0.66 0.64 0.62 0.62 0.59 0.55 0.50 0.42 0.49 0.64 0.58 0.61 0.57 0.46 0.43 0.45 0.38 0.37 0.38 0.33 0.27 0.27 0.29 0.26 0.25 0.29 0.31 0.33 0.33 0.35 0.36 0.42 0.53 0.61 0.68
0.69 0.67 0.65 0.65 0.61 0.58 0.61 0.63 0.63 0.63 0.64 0.64 0.63 0.62 0.57 0.56 0.43 0.42 0.70 0.72 0.76 0.66 0.59 0.58 0.52 0.45 0.37 0.37 0.36 0.34 0.28 0.32 0.33 0.30 0.30 0.30 0.32 0.35 0.34 0.31 0.35 0.37 0.41 0.56 0.62
0.61 0.60 0.60 0.60 0.60 0.59 0.58 0.57 0.57 0.56 0.56 0.57 0.59 0.63 0.55 0.52 0.30 0.52 0.70 0.77 0.73 0.73 0.58 0.55 0.49 0.41 0.36 0.34 0.36 0.30 0.33 0.32 0.33 0.31 0.31 0.29 0.33 0.32 0.35 0.33 0.38 0.41 0.43 0.54 0.61
0.58 0.57 0.55 0.53 0.52 0.52 0.54 0.55 0.54 0.54 0.53 0.52 0.53 0.61 0.52 0.39 0.38 0.50 0.50 0.60 0.81 0.72 0.57 0.53 0.49 0.44 0.36 0.35 0.34 0.34 0.33 0.37 0.38 0.37 0.34 0.33 0.31 0.31 0.31 0.35 0.38 0.44 0.48 0.55 0.63
0.56 0.54 0.53 0.51 0.49 0.47 0.47 0.46 0.47 0.49 0.51 0.51 0.52 0.56 0.45 0.28 0.36 0.46 0.52 0.57 0.56 0.63 0.65 0.57 0.53 0.53 0.42 0.39 0.38 0.39 0.40 0.39 0.41 0.39 0.37 0.32 0.30 0.33 0.28 0.36 0.40 0.46 0.51 0.60 0.65
0.56 0.55 0.54 0.54 0.51 0.50 0.48 0.47 0.44 0.42 0.45 0.48 0.50 0.48 0.38 0.28 0.35 0.42 0.46 0.51 0.60 0.57 0.58 0.63 0.58 0.49 0.47 0.41 0.46 0.44 0.38 0.39 0.41 0.41 0.37 0.36 0.30 0.27 0.29 0.42 0.44 0.50 0.56 0.62 0.69
0.54 0.54 0.55 0.56 0.55 0.53 0.52 0.48 0.44 0.40 0.41 0.45 0.52 0.49 0.32 0.33 0.38 0.39 0.38 0.38 0.46 0.48 0.49 0.60 0.59 0.51 0.48 0.49 0.45 0.40 0.40 0.34 0.39 0.39 0.36 0.33 0.26 0.27 0.33 0.43 0.44 0.51 0.57 0.62 0.69
0.52 0.51 0.55 0.57 0.58 0.58 0.55 0.50 0.44 0.40 0.44 0.49 0.45 0.42 0.26 0.39 0.33 0.37 0.36 0.31 0.42 0.46 0.46 0.44 0.47 0.39 0.42 0.39 0.35 0.36 0.31 0.34 0.37 0.40 0.37 0.35 0.28 0.33 0.41 0.43 0.43 0.49 0.56 0.61 0.66
0.48 0.49 0.53 0.54 0.55 0.56 0.56 0.50 0.41 0.50 0.53 0.52 0.46 0.31 0.31 0.24 0.35 0.51 0.60 0.58 0.48 0.50 0.47 0.41 0.46 0.39 0.39 0.36 0.27 0.31 0.33 0.36 0.35 0.36 0.37 0.31 0.30 0.30 0.36 0.40 0.42 0.48 0.56 0.58 0.62
0.48 0.49 0.52 0.51 0.51 0.53 0.49 0.40 0.35 0.36 0.41 0.30 0.26 0.21 0.20 0.36 0.39 0.35 0.49 0.50 0.43 0.47 0.35 0.42 0.40 0.36 0.38 0.42 0.40 0.37 0.36 0.34 0.38 0.39 0.37 0.34 0.31 0.30 0.32 0.40 0.42 0.46 0.51 0.56 0.62
0.46 0.50 0.52 0.50 0.50 0.51 0.49 0.33 0.39 0.47 0.29 0.39 0.33 0.32 0.30 0.36 0.29 0.35 0.52 0.38 0.37 0.26 0.38 0.39 0.35 0.41 0.45 0.43 0.43 0.40 0.34 0.34 0.37 0.38 0.38 0.35 0.32 0.31 0.31 0.39 0.42 0.43 0.48 0.54 0.62
0.48 0.51 0.51 0.50 0.51 0.46 0.40 0.37 0.56 0.58 0.32 0.32 0.40 0.36 0.36 0.34 0.27 0.27 0.40 0.39 0.33 0.28 0.30 0.33 0.35 0.41 0.43 0.44 0.39 0.39 0.35 0.36 0.33 0.37 0.39 0.35 0.31 0.31 0.28 0.37 0.41 0.43 0.48 0.54 0.60
0.48 0.50 0.47 0.51 0.41 0.44 0.39 0.49 0.55 0.60 0.21 0.20 0.26 0.34 0.39 0.36 0.25 0.33 0.28 0.35 0.33 0.30 0.30 0.31 0.41 0.34 0.38 0.38 0.39 0.34 0.39 0.37 0.34 0.32 0.27 0.35 0.22 0.26 0.33 0.37 0.40 0.41 0.44 0.50 0.58
0.43 0.46 0.49 0.53 0.47 0.37 0.48 0.56 0.58 0.51 0.09 0.16 0.24 0.42 0.39 0.29 0.27 0.39 0.41 0.28 0.25 0.32 0.36 0.29 0.27 0.30 0.27 0.34 0.40 0.35 0.38 0.33 0.33 0.32 0.32 0.32 0.26 0.25 0.30 0.32 0.34 0.37 0.39 0.47 0.56
0.41 0.44 0.50 0.47 0.49 0.48 0.61 0.59 0.51 0.20 0.10 0.14 0.29 0.29 0.27 0.30 0.28 0.36 0.37 0.34 0.32 0.21 0.23 0.30 0.40 0.36 0.32 0.33 0.36 0.42 0.39 0.38 0.36 0.32 0.24 0.30 0.26 0.23 0.28 0.35 0.37 0.38 0.38 0.43 0.52
0.41 0.44 0.48 0.55 0.42 0.59 0.61 0.48 0.21 0.12 0.17 0.16 0.22 0.25 0.24 0.26 0.30 0.30 0.30 0.26 0.24 0.19 0.19 0.18 0.18 0.26 0.30 0.26 0.32 0.35 0.33 0.27 0.25 0.25 0.21 0.28 0.25 0.26 0.35 0.39 0.37 0.35 0.39 0.45 0.51
0.41 0.47 0.51 0.52 0.60 0.61 0.52 0.31 0.14 0.16 0.18 0.24 0.24 0.24 0.20 0.25 0.29 0.29 0.27 0.26 0.30 0.25 0.20 0.18 0.18 0.20 0.23 0.20 0.21 0.25 0.30 0.26 0.21 0.22 0.24 0.29 0.23 0.27 0.38 0.42 0.44 0.39 0.42 0.46 0.52
0.42 0.42 0.46 0.49 0.59 0.63 0.38 0.18 0.14 0.18 0.23 0.21 0.22 0.21 0.22 0.26 0.27 0.29 0.27 0.26 0.32 0.30 0.20 0.18 0.18 0.25 0.24 0.23 0.19 0.23 0.23 0.32 0.27 0.28 0.26 0.27 0.33 0.36 0.38 0.41 0.43 0.40 0.38 0.41 0.50
0.38 0.39 0.36 0.52 0.61 0.54 0.32 0.20 0.22 0.29 0.29 0.24 0.16 0.20 0.20 0.21 0.20 0.24 0.27 0.36 0.33 0.39 0.39 0.27 0.18 0.23 0.26 0.29 0.28 0.23 0.30 0.21 0.25 0.18 0.18 0.22 0.26 0.28 0.33 0.37 0.42 0.42 0.38 0.44 0.49
0.41 0.32 0.38 0.53 0.57 0.43 0.24 0.24 0.26 0.29 0.31 0.26 0.23 0.20 0.21 0.22 0.22 0.21 0.23 0.33 0.39 0.41 0.44 0.36 0.27 0.25 0.28 0.26 0.23 0.25 0.25 0.27 0.26 0.24 0.19 0.18 0.23 0.37 0.36 0.40 0.44 0.45 0.41 0.45 0.51
0.39 0.25 0.43 0.59 0.31 0.33 0.28 0.31 0.36 0.28 0.29 0.28 0.29 0.27 0.22 0.24 0.22 0.21 0.21 0.27 0.40 0.41 0.36 0.44 0.35 0.21 0.22 0.33 0.32 0.31 0.28 0.28 0.23 0.19 0.26 0.24 0.24 0.42 0.44 0.48 0.47 0.47 0.47 0.49 0.56
0.33 0.33 0.46 0.53 0.24 0.23 0.30 0.32 0.31 0.29 0.29 0.27 0.25 0.27 0.29 0.26 0.22 0.25 0.26 0.33 0.34 0.31 0.31 0.38 0.35 0.24 0.22 0.23 0.29 0.25 0.29 0.30 0.30 0.31 0.25 0.26 0.27 0.40 0.42 0.42 0.46 0.50 0.51 0.53 0.55
0.37 0.25 0.33 0.40 0.38 0.31 0.26 0.27 0.31 0.38 0.31 0.33 0.31 0.32 0.30 0.28 0.33 0.27 0.27 0.30 0.37 0.33 0.31 0.30 0.25 0.26 0.22 0.29 0.35 0.30 0.30 0.31 0.30 0.25 0.25 0.23 0.28 0.38 0.41 0.42 0.46 0.51 0.53 0.53 0.53
0.40 0.28 0.29 0.24 0.24 0.28 0.33 0.30 0.27 0.28 0.33 0.34 0.31 0.29 0.28 0.25 0.29 0.29 0.33 0.33 0.34 0.34 0.33 0.31 0.20 0.21 0.26 0.31 0.29 0.30 0.29 0.31 0.27 0.27 0.26 0.28 0.29 0.32 0.36 0.41 0.47 0.52 0.53 0.54 0.52
0.36 0.34 0.35 0.26 0.28 0.28 0.33 0.26 0.28 0.27 0.30 0.27 0.25 0.26 0.29 0.28 0.30 0.29 0.33 0.32 0.30 0.35 0.34 0.35 0.24 0.27 0.22 0.31 0.32 0.27 0.29 0.29 0.29 0.29 0.29 0.31 0.31 0.42 0.46 0.46 0.48 0.50 0.52 0.54 0.56
0.51 0.51 0.41 0.30 0.27 0.30 0.26 0.30 0.31 0.33 0.32 0.30 0.29 0.30 0.29 0.33 0.39 0.43 0.43 0.40 0.36 0.32 0.32 0.31 0.26 0.22 0.16 0.29 0.33 0.24 0.31 0.34 0.29 0.31 0.29 0.27 0.34 0.44 0.43 0.42 0.43 0.47 0.53 0.53 0.57
Wind_Speed
28 28 29 29 29 29 29 29 29 29 28 28 28 28 28 28 29 25 24 22 22 21 21 20 20 19 19 19 18 16 16 16 17 16 15 12 14 13 14 15 14 15 16 14 13
28 28 28 29 30 30 30 30 30 30 30 29 29 29 30 30 28 27 24 24 24 22 22 21 21 20 20 20 18 19 18 19 16 17 15 15 16 17 15 16 17 17 18 16 15
30 30 30 30 30 30 30 31 31 32 32 32 31 30 30 29 27 23 23 23 23 23 22 23 22 21 23 21 21 19 22 19 17 17 17 17 19 18 18 19 18 18 18 16 16
31 31 31 32 31 32 32 32 32 32 32 32 32 31 30 27 24 20 20 19 19 21 22 22 22 23 23 24 23 22 21 22 20 19 20 20 20 20 21 21 19 20 18 16 16
32 32 32 32 32 33 33 33 34 34 33 33 32 31 29 28 28 27 27 24 21 21 22 23 23 24 24 22 23 24 22 21 21 22 22 21 21 22 25 21 21 19 17 16 16
33 33 33 33 33 34 34 35 35 35 35 34 33 31 30 31 27 27 26 26 26 26 26 25 22 24 23 24 23 18 21 23 21 22 21 21 22 20 21 18 17 17 16 15 16
33 33 34 33 33 34 35 35 35 36 36 36 35 32 33 33 29 28 28 26 26 27 26 26 26 24 21 24 25 23 24 24 23 24 23 21 23 24 21 16 16 16 16 15 15
33 33 33 33 34 34 34 35 36 37 37 36 34 32 34 31 32 33 33 33 33 30 28 28 28 28 28 24 22 22 23 22 16 16 16 16 19 18 14 15 16 16 15 14 14
34 34 34 34 34 35 35 36 37 36 34 32 31 32 33 29 29 28 30 31 31 32 31 28 28 30 29 29 27 24 23 22 20 19 19 18 18 13 12 15 15 15 14 13 14
34 34 34 34 34 34 35 36 33 31 28 28 29 29 31 27 24 23 21 23 24 26 28 31 28 29 29 27 27 24 25 23 22 15 18 20 21 19 18 16 17 15 15 14 14
34 34 34 33 33 33 33 30 29 29 29 29 27 28 26 24 25 25 22 21 21 24 27 32 31 33 31 30 29 26 24 24 21 15 19 20 21 20 20 17 18 16 16 15 14
35 34 34 33 32 31 30 27 26 27 32 32 34 35 34 29 27 25 23 23 24 24 25 25 34 33 29 29 28 29 27 26 23 19 21 23 24 21 20 21 19 17 16 15 13
36 35 34 33 32 29 28 27 25 26 27 29 29 28 26 28 28 29 25 25 26 28 28 28 22 28 30 28 28 28 28 24 24 21 23 25 26 24 21 19 17 17 16 15 14
36 36 35 33 31 27 25 23 23 24 23 22 22 22 21 21 22 26 29 26 26 28 26 27 31 24 28 30 28 28 26 25 25 25 22 14 18 14 14 18 17 16 16 15 14
37 36 35 33 31 27 24 22 22 19 20 14 14 15 16 19 17 17 21 29 28 22 24 22 22 28 28 26 25 25 22 23 23 24 24 24 19 15 14 18 18 17 16 16 14
37 36 34 33 31 30 27 24 20 18 21 14 12 13 13 15 15 13 13 18 22 30 28 26 20 21 27 26 24 19 21 20 19 19 22 23 20 16 16 16 14 13 14 15 16
36 35 34 32 29 27 25 22 20 21 15 16 14 14 13 12 12 13 14 15 15 17 26 29 32 25 21 19 21 24 20 16 18 18 20 14 19 19 10 12 11 13 13 13 15
35 35 34 34 30 27 24 24 26 18 20 15 14 15 12 10 10 10 12 13 16 15 14 19 20 32 29 31 21 25 23 17 18 18 16 12 17 17 12 16 16 13 12 12 13
31 32 32 31 31 29 26 29 23 24 18 16 15 14 12 10 10 10 10 10 9 16 14 13 16 16 20 27 30 24 28 24 23 22 20 20 17 18 16 14 13 15 16 16 15
26 27 28 28 29 29 29 31 30 21 17 18 17 13 12 11 10 9 10 8 9 9 15 13 14 14 16 20 25 29 18 21 23 19 20 18 19 15 8 11 12 11 13 15 17
22 21 21 24 28 29 30 29 33 25 19 17 16 16 13 12 12 12 10 10 9 9 8 13 15 12 14 17 21 22 26 24 22 26 21 20 16 15 17 16 11 13 12 13 15
20 19 18 21 26 27 29 31 25 24 28 22 18 17 17 15 15 15 15 13 11 11 12 11 14 17 20 14 15 19 25 27 25 24 24 26 25 10 10 8 10 11 7 8 13
19 19 20 22 24 29 27 25 33 28 22 22 21 20 18 17 16 16 16 14 14 13 12 13 13 16 17 20 23 22 22 25 28 28 31 24 16 18 25 20 16 12 9 7 10
18 17 21 24 26 27 31 31 22 28 27 25 19 19 18 18 19 16 15 15 15 18 17 18 19 19 18 14 16 20 21 24 27 28 28 34 30 24 21 18 16 15 13 11 11
20 21 21 18 27 29 30 26 30 21 27 23 23 23 20 19 19 20 20 21 20 20 22 20 23 24 25 25 24 25 27 28 31 33 32 27 30 29 30 25 21 18 17 17 16
23 16 24 26 26 27 32 33 30 30 25 24 25 22 23 22 21 19 19 21 20 17 16 17 17 18 23 25 25 26 29 30 34 34 33 32 31 25 21 21 22 23 21 21 20
27 24 18 23 28 23 29 30 30 27 25 26 23 23 22 22 21 21 22 22 22 21 20 19 17 15 17 16 20 25 19 26 34 35 34 31 28 25 24 24 24 24 24 24 24
Wind_Direction
281 282 282 282 283 283 283 282 283 284 286 287 289 290 291 290 289 282 276 271 267 261 257 251 252 250 247 249 253 257 264 267 266 270 273 260 276 283 287 284 282 283 286 296 286
282 282 283 283 283 282 282 282 282 282 283 285 288 288 290 289 284 278 273 271 263 256 250 246 245 244 245 248 250 249 258 265 270 270 274 265 275 285 283 281 283 285 282 284 278
282 282 283 283 284 284 283 283 282 282 282 283 284 286 288 287 279 272 273 273 256 249 251 247 248 242 244 247 245 252 257 263 266 270 271 273 278 279 278 280 285 289 289 274 274
281 281 282 283 283 283 283 283 283 283 283 282 283 284 285 278 273 268 270 269 255 246 246 243 242 240 245 244 246 257 257 264 266 270 269 274 279 274 274 277 289 291 286 274 272
281 281 282 282 283 283 283 282 282 282 281 282 283 281 280 270 266 266 266 261 254 247 244 240 240 242 245 249 247 253 260 264 264 266 269 275 274 276 276 277 286 285 280 272 271
280 281 282 282 283 282 282 282 281 281 280 280 280 279 274 270 268 263 262 257 251 246 245 241 242 243 254 249 248 258 262 263 265 266 266 271 274 274 275 281 281 281 276 273 270
280 281 282 282 283 283 283 282 281 280 280 279 277 274 270 266 266 261 259 254 251 247 245 243 242 241 247 251 251 260 264 264 261 263 263 268 273 264 273 274 280 278 279 272 269
280 281 282 282 283 283 284 284 282 280 279 277 273 270 270 269 265 261 256 253 249 248 246 244 242 243 245 252 254 258 258 263 260 260 263 253 273 268 265 267 280 281 279 271 266
279 280 281 282 283 283 285 285 283 280 277 273 269 267 271 268 262 261 252 250 248 245 243 241 240 240 241 246 254 248 257 254 257 255 263 253 271 266 264 273 281 279 275 269 269
278 279 281 282 284 285 285 286 282 275 275 271 269 267 266 263 259 256 249 245 245 238 237 234 236 237 235 236 241 245 247 254 257 257 256 259 261 265 270 269 277 279 272 271 267
278 279 279 282 283 285 287 285 278 272 270 266 266 264 264 264 257 251 247 242 238 236 234 230 231 232 233 236 243 250 255 254 258 257 264 261 264 267 267 268 273 273 270 266 264
276 277 279 280 281 282 283 280 277 277 275 268 263 261 260 259 258 249 241 240 237 237 233 229 235 234 238 238 240 242 249 253 259 257 259 266 267 268 267 265 267 270 266 262 255
274 275 276 278 279 278 278 276 273 282 275 271 259 260 256 248 248 245 240 240 238 235 230 233 236 232 231 232 235 239 244 249 256 258 261 268 269 269 262 261 263 265 264 258 249
272 273 274 275 273 272 273 272 273 279 274 266 256 252 249 247 247 243 238 237 234 236 231 240 241 236 228 232 233 242 242 249 255 257 261 255 274 269 260 257 256 260 255 252 246
271 271 270 268 268 265 266 269 273 270 269 259 250 246 244 241 252 243 237 233 233 227 228 234 234 230 231 230 232 241 248 244 250 253 258 254 264 272 258 262 261 253 250 245 239
270 268 267 264 260 258 260 261 260 255 253 251 244 241 243 238 242 235 235 235 235 238 239 240 238 234 233 234 232 230 236 242 246 250 250 250 249 262 257 259 264 259 247 243 238
268 265 262 258 256 254 249 244 245 246 250 241 243 242 252 237 231 229 226 224 227 225 233 236 237 236 234 230 224 228 232 236 239 237 250 255 241 249 248 254 256 270 259 242 236
267 263 258 253 248 244 239 235 237 246 241 246 244 246 239 238 230 226 220 227 229 234 240 226 231 229 231 230 228 226 223 231 240 246 254 231 246 246 253 256 254 251 257 247 237
266 260 255 247 239 234 232 230 236 236 239 239 242 235 228 231 240 231 230 227 232 230 234 233 234 239 230 225 224 224 228 236 255 255 252 250 248 262 250 249 247 258 260 245 236
263 258 251 241 232 227 229 232 231 234 238 234 236 240 231 240 236 238 228 237 238 248 239 237 241 233 230 227 227 232 234 226 232 243 245 246 246 250 230 234 247 266 271 247 234
258 255 245 234 224 225 228 230 228 233 234 238 237 239 241 245 244 246 241 232 248 252 237 242 237 225 223 224 225 225 232 234 246 238 250 257 257 244 246 251 242 282 272 247 231
251 249 238 222 223 226 228 228 227 229 234 236 241 244 247 248 249 249 246 246 253 254 249 248 245 242 241 232 235 240 234 232 236 238 243 250 248 247 229 219 264 274 260 251 229
248 247 237 225 229 227 229 229 228 227 229 227 236 238 240 243 246 246 249 249 249 250 253 255 245 249 243 242 239 241 242 241 244 248 248 244 250 240 248 259 257 250 261 251 234
249 246 235 231 234 233 226 226 225 223 230 232 235 236 237 239 242 247 247 251 253 257 254 252 248 247 252 257 255 252 256 249 240 241 247 246 252 249 249 252 252 249 255 249 242
246 244 236 233 231 229 228 228 224 223 227 229 234 238 239 242 243 244 250 259 260 266 255 248 254 254 252 254 260 262 257 252 248 243 244 250 249 249 249 250 252 251 253 248 250
241 245 235 238 234 227 225 226 228 226 224 230 236 236 238 241 244 254 257 260 258 255 255 252 252 259 256 253 254 261 260 257 249 248 251 251 251 251 251 248 249 251 251 251 249
236 238 240 233 227 228 223 221 223 223 230 231 233 237 240 245 250 254 257 257 255 252 246 249 248 256 256 247 261 259 267 267 250 243 244 249 248 246 249 252 253 255 252 249 248